[Date Prev][Date Next][Thread Prev][Thread Next] - [Date Index][Thread Index][Author Index]

2 Line ISS Keps 5-23



ISS
1 25544U 98067A   05143.15023543  .00016158  00000-0  12511-3 0  5299
2 25544 051.6467 029.1608 0005762 151.6897 345.0016 15.72025292371740
----
Via the sarex mailing list at AMSAT.ORG courtesy of AMSAT-NA.
To unsubscribe, send "unsubscribe sarex" to Majordomo@amsat.org



AMSAT Top AMSAT Home